Location: ?
(35.3436°N, 139.3168°E)
Time: 20:42:08
(UTC+00:00)

Cosmos 1726 Rocket - Pass Details

Date: 29 October 2020
Orbit: 604 x 629 km, 82.5° (Epoch: 24 November)

Event Time Altitude Azimuth Distance (km) Brightness Sun altitude
Rises 19:26:08 0° 353° (N) 2,920 6.9 -20.1°
Reaches altitude 10° 19:28:22 10° 353° (N) 2,010 6.1 -19.7°
Maximum altitude 19:32:50 88° 264° (W) 634 3.5 -18.8°
Drops below altitude 10° 19:37:17 10° 175° (S) 1,996 6.3 -17.9°
Sets 19:39:30 0° 175° (S) 2,898 7.1 -17.4°
